Location: Hains Lake
(37.8540°N, 99.8578°W)
Time: 19:09:22
(UTC+00:00)

Vanguard 1 Rocket - All Passes

Search period start: 19 April 2021 00:00
Search period end: 29 April 2021 00:00
Orbit: 653 x 4223 km, 34.3° (Epoch: 19 April)

Date Brightness Start Highest point End Pass type
(mag) Time Alt. Az. Time Alt. Az. Time Alt. Az.
19 Apr - 00:16:04 10° W 00:20:22 41° SSW 00:26:25 10° SE daylight
19 Apr - 02:41:35 10° WSW 02:45:45 17° SSW 02:51:27 10° SSE visible
19 Apr - 18:14:38 10° SSW 18:20:18 21° SSE 18:24:22 10° ESE daylight
19 Apr - 20:39:58 10° WSW 20:45:13 47° S 20:49:26 10° E daylight
19 Apr - 23:05:23 10° W 23:09:38 50° S 23:14:43 10° ESE daylight
20 Apr - 01:30:16 10° WSW 01:34:25 23° SSW 01:40:18 10° SSE daylight
20 Apr - 17:03:51 10° S 17:08:53 15° SSE 17:12:44 10° ESE daylight
20 Apr - 19:28:14 10° SW 19:34:27 37° SSE 19:38:46 10° E daylight
20 Apr - 21:54:22 10° W 21:58:59 57° S 22:03:27 10° ESE daylight
21 Apr - 00:19:23 10° W 00:23:27 31° SSW 00:28:53 10° SE daylight
21 Apr - 02:47:13 10° SW 02:48:54 11° SSW 02:50:48 10° S visible
21 Apr - 15:55:40 10° SSE 15:57:03 10° SSE 15:58:21 10° SE daylight
21 Apr - 18:16:17 10° SW 18:23:26 29° SSE 18:28:05 10° ESE daylight
21 Apr - 20:42:50 10° WSW 20:48:19 55° S 20:52:37 10° E daylight
21 Apr - 23:08:33 10° W 23:12:43 42° SSW 23:17:32 10° ESE daylight
22 Apr - 01:34:18 10° WSW 01:37:32 16° SSW 01:41:39 10° SSE daylight
22 Apr - 17:04:24 10° SSW 17:12:03 22° SSE 17:17:08 10° ESE daylight
22 Apr - 19:30:47 10° WSW 19:37:33 47° S 19:42:03 10° E daylight
22 Apr - 21:57:25 10° W 22:02:06 53° S 22:06:29 10° ESE daylight
23 Apr - 00:22:54 10° WSW 00:26:31 23° SSW 00:31:04 10° SSE daylight
23 Apr - 15:53:10 10° S 16:00:14 17° SSE 16:05:20 10° ESE daylight
23 Apr - 18:18:19 10° SW 18:26:32 38° SSE 18:31:33 10° E daylight
23 Apr - 20:45:45 10° WSW 20:51:26 59° S 20:55:45 10° E daylight
23 Apr - 23:11:47 10° W 23:15:46 33° SSW 23:20:14 10° SE daylight
24 Apr - 14:44:14 10° SSE 14:47:57 11° SSE 14:51:09 10° SE daylight
24 Apr - 17:05:41 10° SW 17:15:10 31° SSE 17:20:54 10° E daylight
24 Apr - 19:33:26 10° WSW 19:40:38 55° S 19:45:16 10° E daylight
24 Apr - 22:00:30 10° W 22:05:11 47° SSW 22:09:28 10° ESE daylight
25 Apr - 00:26:47 10° WSW 00:29:34 16° SSW 00:32:47 10° SSE daylight
25 Apr - 15:53:19 10° SSW 16:03:22 24° SSE 16:09:46 10° ESE daylight
25 Apr - 18:20:35 10° WSW 18:29:37 48° SSE 18:34:53 10° E daylight
25 Apr - 20:48:42 10° W 20:54:32 59° S 20:58:52 10° ESE daylight
25 Apr - 23:15:09 10° WSW 23:18:48 25° SSW 23:22:43 10° SE daylight
26 Apr - 14:41:52 10° S 14:51:05 18° SSE 14:57:37 10° ESE daylight
26 Apr - 17:07:23 10° SW 17:18:15 40° SSE 17:24:23 10° E daylight
26 Apr - 19:36:12 10° WSW 19:43:44 61° S 19:48:27 10° E daylight
26 Apr - 22:03:37 10° W 22:08:12 39° SSW 22:12:20 10° SE daylight
27 Apr - 13:33:14 10° SSE 13:38:20 12° SSE 13:42:39 10° SE daylight
27 Apr - 15:54:12 10° SSW 16:06:27 32° SSE 16:13:35 10° E daylight
27 Apr - 18:23:01 10° WSW 18:32:41 57° S 18:38:07 10° E daylight
27 Apr - 20:51:40 10° W 20:57:36 55° S 21:01:56 10° ESE daylight
27 Apr - 23:18:47 10° WSW 23:21:45 17° SSW 23:24:51 10° SSE daylight
28 Apr - 14:41:35 10° SSW 14:54:09 25° SSE 15:02:08 10° ESE daylight
28 Apr - 17:09:21 10° SW 17:21:18 49° SSE 17:27:44 10° E daylight
28 Apr - 19:39:01 10° W 19:46:48 64° S 19:51:36 10° ESE daylight
28 Apr - 22:06:48 10° W 22:11:12 30° SSW 22:15:04 10° SE daylight
